Regional Weather Roundup
Issued by NWS

Home | Current Version | Previous Version | Graphics & Text | Print | Product List | Glossary On
Versions: 1 2 3 4 5 6 7 8 9 10 11 12 13 14 15 16 17 18 19 20 21 22 23 24 25 26 27 28 29 30 31 32 33 34 35 36 37 38 39 40 41 42 43 44 45 46 47 48 49 50
805
ASUS43 KDMX 291101
RWRIA

WEATHER ROUNDUP FOR IOWA
NATIONAL WEATHER SERVICE DES MOINES IA
600 AM CDT SAT APR 29 2017

NOTE: "FAIR" INDICATES FEW OR NO CLOUDS BELOW 12,000 FEET WITH NO
SIGNIFICANT WEATHER AND/OR OBSTRUCTIONS TO VISIBILITY.

* - THESE STATIONS ARE NOT NWS STATIONS...THUS NOT UNDER NWS
QUALITY CONTROL.  THEY ALSO DO NOT REPORT WEATHER SUCH
AS PRECIPITATION OR FOG.

IAZ001>003-012>014-020>022-031>034-043>046-291200-
   NORTHWEST IOWA

CITY           SKY/WX    TMP DP  RH WIND       PRES   REMARKS
CARROLL *      PTCLDY    39  36  87 NE10      30.11R WCI  32
CHEROKEE *     CLOUDY    38  32  78 NE5       30.15R WCI  35
DENISON *      CLOUDY    39  32  75 NE15G21   30.08F WCI  31
LE MARS *      CLOUDY    39  28  65 NE7       30.17R WCI  34
ORANGE CITY *  CLOUDY    37  28  70 NE5       30.15R WCI  34
SHELDON *      CLOUDY    36  28  75 NE13      30.13F WCI  27
SIOUX CITY     MOCLDY    42  29  59 NE13      30.14R
SPENCER        CLOUDY    37  30  75 NE10      30.15R WCI  30
STORM LAKE *   PTCLDY    37  32  81 NE14      30.12R WCI  29
$$

IAZ055>058-069>071-079>083-090>094-291200-
   SOUTHWEST IOWA

CITY           SKY/WX    TMP DP  RH WIND       PRES   REMARKS
ATLANTIC *     CLOUDY    43  36  75 NE13G22   30.06R
AUDUBON *      CLOUDY    39  36  87 N13G20    30.06S WCI  32
CLARINDA *       N/A     45  37  76 NE13G20   30.04R
COUNCIL BLFS * CLOUDY    43  37  81 NE9G15    30.09R
CRESTON *      CLOUDY    43  36  75 NE18G25   30.04R
HARLAN  *      CLOUDY    41  36  81 NE16G26   30.09R
LAMONI         CLOUDY    43  40  89 NE17G23   30.01R
RED OAK *      CLOUDY    45  36  70 NE15      30.05R
SHENANDOAH *   CLOUDY    45  37  76 NE10G17   30.06R
$$

IAZ047>049-059>061-072>074-084-291200-
   CENTRAL IOWA

CITY           SKY/WX    TMP DP  RH WIND       PRES   REMARKS
AMES           CLOUDY    43  35  73 NE10      30.09R
ANKENY *       CLOUDY    43  36  75 NE9G16    30.10R
BOONE *        CLOUDY    41  36  81 NE15      30.08R
CHARITON *     CLOUDY    43  39  87 NE12G22   30.04R
DES MOINES     CLOUDY    45  35  68 NE17      30.07R
GRINNELL*      CLOUDY    42  37  82 NE12G18   30.10R
KNOXVILLE *    CLOUDY    45  37  76 NE17      30.02F
MARSHALLTOWN   CLOUDY    42  35  76 NE14      30.09R
NEWTON *       CLOUDY    43  36  75 NE16G24   30.06R
PELLA *        CLOUDY    44  38  80 E8        30.06F
PERRY *          N/A     43  35  73 NE13G20   30.08R
$$

IAZ004>006-015-016-023>025-035-036-291200-
   NORTH CENTRAL IOWA

CITY           SKY/WX    TMP DP  RH WIND       PRES   REMARKS
ALGONA *       PTCLDY    34  32  93 NE10      30.15F WCI  26
CLARION *      CLOUDY    37  36  93 NE13      30.11S WCI  29
ESTHERVILLE    CLOUDY    35  31  85 NE13      30.17R WCI  26
FORT DODGE *   PTCLDY    37  30  75 NE9       30.11S WCI  31
MASON CITY     PTCLDY    37  31  78 N10       30.15F WCI  30
FOREST CITY *    N/A     36  28  75 NE8       30.14F WCI  29
WEBSTER CITY * PTCLDY    39  32  75 NE12      30.09R WCI  32
IOWA FALLS *     N/A     39  33  79 NE12      30.12R WCI  32
$$

IAZ007>011-017>019-026>030-037>042-050>054-066-291200-
   NORTHEAST IOWA

CITY           SKY/WX    TMP DP  RH WIND       PRES   REMARKS
CEDAR RAPIDS   CLOUDY    44  39  82 E14       30.09R
CHARLES CITY * CLOUDY    37  34  87 NE14      30.12F WCI  29
CLINTON *      CLOUDY    46  41  82 E15       30.11R
DECORAH *      PTCLDY    36  32  87 N8        30.15R WCI  29
DUBUQUE        PTCLDY    43  36  76 NE16      30.12R
MONTICELLO *   CLOUDY    45  37  76 NE10      30.12R
OELWEIN *      CLOUDY    41  36  81 NE16      30.10R
WATERLOO       PTCLDY    41  33  73 NE13      30.11R
$$

IAZ064-065-067-068-078-291200-
   EAST CENTRAL IOWA

CITY           SKY/WX    TMP DP  RH WIND       PRES   REMARKS
DAVENPORT      CLOUDY    45  41  86 E15       30.10R
IOWA CITY      CLOUDY    47  39  74 E14G20    30.11R
MT. PLEASANT * LGT RAIN  45  45 100 NE15      30.05F
MUSCATINE *    CLOUDY    46  43  87 NE15G21   30.10R
QUAD CITIES    CLOUDY    47  42  83 E13       30.09R
$$

IAZ062-063-075>077-085>089-095>099-291200-
   SOUTHEAST IOWA

CITY           SKY/WX    TMP DP  RH WIND       PRES   REMARKS
BURLINGTON     CLOUDY    47  47 100 NE15      30.04S FOG
FAIRFIELD *    CLOUDY    45  43  93 NE17G29   30.05F
FORT MADISON * CLOUDY    46  46 100 NE13      30.04R FOG
KEOKUK *       CLOUDY    48  46  93 NE10G18   29.99F FOG
OSKALOOSA *    CLOUDY    44  40  88 E18G25    30.06S
CENTERVILLE *  CLOUDY    45  43  93 NE16G26   30.01F
OTTUMWA        CLOUDY    45  42  89 E18       30.05R
WASHINGTON *   CLOUDY    45  43  93 E18       30.08R
$$

ABBREVIATIONS USED IN REMARKS
   TC - TEMPERATURES IN CELSIUS
  WCI - WIND CHILL INDEX
   HX - HEAT INDEX
  VSB - VISIBILITY
$$





USA.gov is the U.S. government's official web portal to all federal, state and local government web resources and services.